This is the latest recevied weather packets stored in our database for station/object KI6AOK. If no packets are shown the sender has not sent any weather packets the latest 10 day(s).
| Time | Temp. | Humidity | Pressure | Rain* | Wind** | Luminosity | Snow |
|---|---|---|---|---|---|---|---|
| 1778009233 | 19.44° C | 43% | 1015.4 hPa | 0 mm | - | 909 W/m² | - |
| 1778008930 | 20° C | 45% | 1015.6 hPa | 0 mm | - | 908 W/m² | - |
| 1778008628 | 19.44° C | 47% | 1015.5 hPa | 0 mm | - | 923 W/m² | - |
| 1778008326 | 18.89° C | 51% | 1015.7 hPa | 0 mm | - | 1020 W/m² | - |
| 1778008022 | 18.33° C | 53% | 1015.6 hPa | 0 mm | - | 1076 W/m² | - |
| 1778007721 | 17.78° C | 54% | 1015.7 hPa | 0 mm | - | 1104 W/m² | - |
| 1778007419 | 17.78° C | 54% | 1015.7 hPa | 0 mm | - | 298 W/m² | - |
| 1778007115 | 17.78° C | 52% | 1015.7 hPa | 0 mm | - | 351 W/m² | - |
| 1778006811 | 17.78° C | 51% | 1015.6 hPa | 0 mm | - | 436 W/m² | - |
| 1778006508 | 18.33° C | 53% | 1015.7 hPa | 0 mm | - | 221 W/m² | - |
| 1778006205 | 18.33° C | 52% | 1015.7 hPa | 0 mm | - | 1143 W/m² | - |
| 1778005903 | 18.33° C | 47% | 1015.6 hPa | 0 mm | - | 474 W/m² | - |
| 1778005599 | 17.78° C | 52% | 1015.6 hPa | 0 mm | - | 420 W/m² | - |
| 1778005296 | 18.33° C | 53% | 1015.5 hPa | 0 mm | - | 223 W/m² | - |
| 1778004992 | 18.89° C | 49% | 1015.7 hPa | 0 mm | - | 1055 W/m² | - |
| 1778004690 | 18.89° C | 51% | 1015.5 hPa | 0 mm | - | 1050 W/m² | - |
| 1778004386 | 18.89° C | 54% | 1015.5 hPa | 0 mm | - | 1061 W/m² | - |
| 1778004084 | 18.89° C | 58% | 1015.4 hPa | 0 mm | - | 1037 W/m² | - |
| 1778003780 | 18.33° C | 57% | 1015.5 hPa | 0 mm | - | 867 W/m² | - |
| 1778003476 | 17.78° C | 64% | 1015.4 hPa | 0 mm | - | 981 W/m² | - |
| 1778003173 | 17.22° C | 67% | 1015.4 hPa | 0 mm | - | 1031 W/m² | - |
| 1778002868 | 16.67° C | 66% | 1015.2 hPa | 0 mm | - | 1013 W/m² | - |
| 1778002566 | 16.11° C | 73% | 1015.2 hPa | 0 mm | - | 991 W/m² | - |
| 1778002262 | 15.56° C | 74% | 1015.4 hPa | 0 mm | - | 512 W/m² | - |
| 1778001960 | 15.56° C | 74% | 1015.2 hPa | 0 mm | - | 342 W/m² | - |
* Rain latest hour (hover to see other rain measurements)
** Current wind speed in m/s (hover to see current wind gust speed)